Starlink 34649

operational
NORAD ID: 64798 Int'l Des: 2025-150 Owner: SPXS Country: US Constellation: starlink
LEOCIRCULAR

Über Starlink 34649

Beschreibung wird geladen...

Live-Position

3D-Globus wird geladen...

Nächste Überflüge

Höhenverlauf

Altitude vs Time

uPlot chart will show altitude changes over time

Zweizeiliger Elementsatz

1 64798U 25150J 25340.81518240 .00112137 00000-0 25277-2 0 9990
2 64798 70.0014 9.8788 0002105 300.6231 59.4743 15.42706840 23465
Epoch: 6. Dez. 2025 • Age: 11 hours

Aktueller Status

Höhe 442.2 km
Geschwindigkeit 7.65 km/s
Subsatellitenpunkt 35.30°N, 152.11°W
Startdatum 16. Juli 2025
Alter 0.3 years
Typ internet

Technische Details

Klassifizierung Payload
Masse 575.00 kg
Trockenmasse 530.00 kg
Gesamtmasse 575.00 kg
Länge 0.30 m
Durchmesser 4.10 m
Spannweite 29.00 m
Form Box + pan
Hersteller SPXS
Bus-Typ Starlink V2MO
Phasenstatus In Orbit
Besitzer/Staat SPXS/US

Große Konstellationen

Loading constellations...